Regional Weather Roundup
Issued by NWS Northern Indiana

Home | Current Version | Previous Version | Graphics & Text | Print | Product List | Glossary On
Versions: 1 2 3 4 5 6 7 8 9 10 11 12 13 14 15 16 17 18 19 20 21 22 23 24 25 26 27 28 29 30 31 32 33 34 35 36 37 38 39 40 41 42 43 44 45 46 47 48 49 50
000
ASUS43 KIWX 102310
RWRIWX

KIWX WEATHER ROUNDUP
NATIONAL WEATHER SERVICE NORTHERN INDIANA
600 PM EST SUN DEC 10 2017

NOTE: "FAIR" INDICATES FEW OR NO CLOUDS BELOW 12,000 FEET WITH NO
SIGNIFICANT WEATHER AND/OR OBSTRUCTIONS TO VISIBILITY.

* THESE STATIONS ARE NOT UNDER NWS QUALITY CONTROL. THEY ALSO MAY NOT
  REPORT WEATHER SUCH AS PRECIPITATION OR FOG.

INZ001>027-110000-
NORTHERN INDIANA

CITY           SKY/WX    TMP DP  RH WIND       PRES   REMARKS
GARY*          CLOUDY    34  21  60 W12       30.00R WCI  25
VALPARAISO     CLOUDY    33  23  66 NW8       29.98R WCI  26
MICHIGAN CITY* CLOUDY    32  25  74 NW10G17   29.98R WCI  24
LAPORTE*       CLOUDY    31  24  72 NW3       29.96R
KNOX*          CLOUDY    32  25  74 NW7       29.96R WCI  26
SOUTH BEND     CLOUDY    30  25  81 W7        29.95R WCI  23
ELKHART*       CLOUDY    30  23  74 W7        29.94R WCI  23
GOSHEN         CLOUDY    30  22  72 NW6       29.94R WCI  24
MONTICELLO*    CLEAR     32  20  61 W7        29.96R WCI  26
LOGANSPORT*    PTCLDY    34  23  64 W9G16     29.96R WCI  26
ROCHESTER*     CLOUDY    36  27  69 NW9       29.96R
WARSAW*        CLOUDY    32  25  74 NW8       29.94R WCI  25
AUBURN*        CLOUDY    32  23  69 CALM      29.93S
FORT WAYNE     CLOUDY    32  25  75 S5        29.94R WCI  27
HUNTINGTON*    CLOUDY    33  21  61 SW3       29.93S
PERU/GRISSOM   CLOUDY    34  25  69 W8        29.94R WCI  27
MARION*        CLOUDY    33  24  68 SW8       29.96R WCI  26

$$
INZ028>050-110000-
CENTRAL INDIANA

CITY           SKY/WX    TMP DP  RH WIND       PRES   REMARKS
LAFAYETTE      CLEAR     34  22  61 W12       29.98R WCI  25
KOKOMO*        CLOUDY    34  24  67 W9        29.96R WCI  27
MUNCIE*        CLOUDY    35  21  56 SW8       29.96R WCI  29
INDIANAPOLIS   PTCLDY    32  22  66 SW9       29.99R WCI  24

$$
MIZ043>046-050>051-056>058-064>065-071>073-077>080-110000-
SOUTHWEST LOWER MICHIGAN

CITY           SKY/WX    TMP DP  RH WIND       PRES   REMARKS
BATTLE CREEK   CLOUDY    28  22  78 W8        29.91R WCI  20
BENTON HARBOR  CLOUDY    32  24  72 NW8       29.95R WCI  25
COLDWATER*     CLOUDY    28  21  74 SW7       29.92R WCI  21
HILLSDALE*     CLOUDY    28  19  69 SW8       29.89S WCI  20
HOLLAND        CLOUDY    31  23  72 NW10      29.94R WCI  22
GRAND RAPIDS   CLOUDY    28  25  88 NW9       29.92R WCI  19
KALAMAZOO      CLOUDY    29  22  75 W5        29.92R WCI  24
STURGIS*       CLOUDY    28  22  81 SW6       29.92R WCI  21
THREE RIVERS*  CLOUDY    31  23  73 W6        29.93R WCI  25

$$
OHZ001>008-015>018-024>025-110000-
NORTHWEST OHIO

CITY           SKY/WX    TMP DP  RH WIND       PRES   REMARKS
WAUSEON*         N/A     28  25  86 SW8       29.94R WCI  20
DEFIANCE       CLOUDY    30  20  66 SW5       29.95R WCI  25
FINDLAY        CLOUDY    31  18  58 SW12      29.96R WCI  22
TOLEDO EXPRESS CLOUDY    29  22  75 SW6       29.95R WCI  23
TOLEDO METCALF CLOUDY    30  20  66 SW8       29.97R WCI  22
LIMA           CLOUDY    30  21  69 SW8       29.96R WCI  22

$$
AND FOR LAKE MICHIGAN COASTAL AND OPEN LAKE BUOY OBSERVATIONS

STATION/POSITION TEMP    WIND        PRES    VSBY  WAVE
                 AIR SEA DIR/SP/G                  HT/PER
                 (F)     (DEG/KT/KT) (MB)    (MI)  (FT/S)
CALUMET HARBOR    31     290/  8/ 11 1015.0R
MICHIGAN CITY     32     300/ 15/ 17   N/A
BURNS HARBOR      33     320/ 13/ 17 1015.2R
SAINT JOSEPH      33     300/ 13/ 19 1015.2

$$
&&




USA.gov is the U.S. government's official web portal to all federal, state and local government web resources and services.